Temperature
9 9 9 9 8 8 8 8 7 7 7 7 7 6 6 5 4 4 4 3 3 3 2 2 2 1 1 1 1 1 1 1 1 1 1 1 1 0
8 8 8 8 7 7 7 7 7 6 6 6 6 5 5 4 3 3 3 2 2 2 1 1 1 1 0 0 0 -0 -0 -0 -0 -0 -1 -1 -1 -1
7 7 7 7 7 6 6 6 6 6 5 5 5 4 4 3 3 2 2 2 1 1 1 1 0 -0 -0 -1 -1 -1 -1 -1 -1 -1 -2 -2 -2 -2
6 6 6 6 6 6 5 5 5 5 4 4 4 3 3 2 2 2 1 1 1 0 0 -0 -1 -1 -1 -2 -2 -2 -2 -2 -2 -2 -2 -2 -2 -2
5 5 5 5 5 4 4 4 4 3 3 3 2 2 2 1 1 1 1 0 -0 -0 -1 -1 -1 -2 -2 -3 -3 -3 -3 -3 -3 -3 -3 -3 -3 -3
4 3 3 3 3 3 2 2 2 2 2 2 1 1 1 0 0 -0 -1 -1 -1 -1 -2 -2 -2 -2 -2 -3 -3 -3 -3 -3 -3 -3 -3 -3 -3 -3
2 2 2 1 1 1 1 1 1 1 1 0 0 -0 -0 -1 -1 -1 -2 -2 -3 -3 -3 -3 -3 -3 -3 -3 -3 -3 -3 -3 -3 -3 -4 -4 -4 -4
1 0 0 -0 -0 -1 -1 -1 -1 -1 -1 -1 -1 -2 -2 -2 -3 -3 -3 -4 -4 -4 -4 -3 -4 -3 -3 -3 -3 -3 -3 -3 -3 -4 -4 -4 -4 -4
-0 -1 -1 -1 -1 -1 -1 -2 -2 -2 -2 -3 -3 -4 -4 -4 -4 -5 -5 -5 -5 -5 -5 -3 -3 -3 -3 -3 -3 -3 -3 -4 -4 -4 -4 -4 -4 -4
-1 -1 -1 -2 -2 -2 -2 -3 -3 -3 -4 -4 -4 -5 -5 -5 -6 -6 -6 -6 -5 -5 -5 -4 -3 -3 -3 -3 -3 -3 -4 -4 -4 -4 -4 -4 -4 -4
-2 -2 -3 -3 -4 -4 -4 -4 -4 -5 -5 -5 -6 -6 -6 -6 -6 -6 -6 -6 -5 -5 -5 -5 -4 -4 -3 -2 -3 -3 -4 -4 -4 -4 -4 -4 -4 -4
-3 -4 -4 -4 -5 -6 -5 -5 -5 -5 -6 -6 -6 -6 -6 -6 -6 -6 -6 -6 -7 -6 -6 -6 -5 -5 -4 -3 -3 -3 -4 -4 -4 -4 -4 -4 -4 -4
-4 -4 -5 -5 -6 -6 -6 -6 -6 -6 -6 -6 -6 -6 -6 -6 -7 -7 -7 -7 -7 -7 -7 -7 -6 -6 -7 -5 -3 -3 -3 -4 -4 -4 -4 -4 -5 -5
-5 -5 -5 -6 -6 -6 -6 -7 -7 -7 -7 -7 -6 -6 -7 -7 -7 -7 -7 -7 -6 -6 -6 -7 -7 -7 -7 -7 -5 -3 -3 -4 -4 -4 -4 -5 -5 -6
-5 -6 -6 -6 -6 -7 -7 -7 -7 -7 -7 -7 -7 -7 -7 -7 -7 -7 -7 -7 -6 -6 -6 -7 -7 -7 -7 -7 -6 -5 -4 -3 -4 -4 -5 -5 -6 -6
-6 -6 -6 -7 -7 -7 -7 -7 -7 -7 -7 -7 -7 -7 -7 -7 -7 -7 -7 -6 -6 -6 -6 -7 -7 -7 -7 -7 -7 -6 -5 -5 -5 -5 -6 -6 -6 -6
-6 -6 -7 -7 -7 -7 -7 -8 -8 -8 -8 -8 -8 -7 -7 -7 -7 -7 -7 -7 -7 -6 -5 -6 -7 -7 -8 -8 -7 -6 -5 -5 -5 -6 -7 -6 -6 -6
-7 -7 -7 -7 -7 -7 -8 -8 -8 -8 -8 -8 -8 -8 -8 -7 -7 -7 -7 -7 -7 -7 -6 -6 -7 -8 -8 -7 -7 -6 -6 -6 -6 -7 -7 -7 -6 -5
-7 -7 -7 -7 -8 -8 -8 -8 -8 -8 -8 -8 -8 -8 -8 -8 -8 -8 -8 -8 -8 -8 -7 -7 -8 -9 -10 -9 -8 -7 -7 -7 -7 -7 -7 -8 -7 -6
-7 -7 -7 -8 -8 -8 -8 -8 -8 -8 -8 -8 -8 -8 -8 -8 -8 -8 -8 -9 -9 -9 -8 -8 -8 -9 -10 -10 -10 -7 -7 -8 -8 -8 -7 -7 -8 -7
-7 -7 -7 -8 -8 -8 -8 -8 -8 -8 -8 -8 -8 -9 -9 -9 -9 -9 -9 -9 -9 -9 -9 -8 -8 -9 -10 -10 -10 -8 -6 -7 -8 -8 -8 -8 -9 -8
-6 -7 -7 -8 -8 -8 -8 -8 -8 -8 -8 -9 -9 -9 -9 -9 -9 -9 -9 -9 -9 -9 -9 -8 -8 -9 -9 -10 -10 -9 -7 -7 -7 -8 -8 -8 -9 -9
-6 -7 -7 -7 -8 -8 -8 -8 -8 -8 -8 -9 -9 -9 -9 -9 -9 -9 -9 -9 -9 -9 -9 -9 -9 -9 -9 -10 -10 -10 -9 -8 -8 -8 -7 -7 -8 -8
Wind_Speed
3 3 3 2 2 2 3 4 5 5 5 4 2 1 1 4 7 8 9 14 15 14 12 11 9 8 9 11 12 13 15 15 15 16 17 18 18 18
4 4 3 3 2 2 1 1 2 4 4 2 2 1 2 3 6 7 8 10 11 11 11 10 9 10 11 13 14 15 15 15 16 17 18 18 18 18
7 6 6 5 4 4 3 2 2 0 2 1 2 1 1 3 3 5 5 4 4 6 7 8 10 12 13 13 14 14 15 15 16 17 17 17 18 18
8 8 8 6 7 5 5 4 3 3 1 2 1 1 1 2 3 3 3 3 2 4 7 9 11 11 12 13 13 14 14 15 15 16 17 17 18 18
9 9 8 7 7 6 6 5 4 4 3 2 2 2 2 2 3 2 1 1 1 3 6 8 10 11 12 12 13 13 14 14 15 16 16 17 18 18
9 9 8 7 6 6 5 5 5 5 4 4 3 2 2 2 2 1 1 1 1 2 5 7 8 9 10 12 12 13 13 14 15 16 16 17 17 18
9 9 9 10 10 7 5 5 5 4 4 4 3 2 2 2 1 1 1 1 1 1 2 3 5 7 10 12 13 14 14 15 15 16 17 17 18 19
8 8 8 10 12 12 11 9 7 4 3 2 2 2 1 1 1 1 1 1 2 1 1 4 4 5 9 12 13 14 14 15 15 16 16 17 18 19
6 6 6 7 8 6 8 10 9 9 5 2 2 0 0 1 2 1 1 2 3 3 1 4 3 5 8 11 13 14 14 14 14 14 15 16 17 18
5 5 5 5 4 5 5 6 6 5 5 2 2 2 2 3 4 4 4 2 3 4 3 3 3 3 4 10 13 12 10 10 10 12 14 15 16 18
5 4 3 4 7 7 5 4 5 5 6 5 3 3 4 5 4 2 1 0 3 3 2 2 3 4 4 4 7 6 7 9 12 13 14 16 17 18
4 5 7 6 7 7 2 2 3 4 4 4 6 7 6 6 5 1 3 3 2 3 2 1 2 3 5 3 3 7 9 13 14 15 17 18 18 14
2 3 4 8 8 8 5 1 5 3 1 3 3 4 3 3 2 1 3 4 4 5 3 1 2 2 3 5 4 4 7 8 10 13 18 18 16 13
2 3 5 9 9 8 6 6 7 4 1 2 2 3 3 3 3 3 4 6 7 8 8 5 4 4 4 6 7 4 4 8 9 9 11 15 14 16
3 6 8 9 8 5 7 7 4 2 2 2 3 3 3 3 3 4 5 7 9 11 13 13 8 7 7 8 8 8 6 6 6 7 6 6 6 8
4 5 7 7 5 5 5 4 3 3 3 3 4 3 3 3 3 3 4 4 5 5 7 12 12 9 9 10 11 13 10 7 5 6 7 9 10 12
3 1 2 3 3 3 3 3 3 3 3 3 3 4 4 5 5 4 4 4 5 6 7 5 9 12 10 11 11 13 13 12 12 10 8 11 10 9
4 1 3 3 4 4 4 4 3 4 3 3 4 4 5 6 6 6 6 6 8 8 8 7 5 6 6 9 15 15 12 12 10 9 8 11 14 10
2 3 4 4 4 4 4 4 4 4 4 4 5 5 6 6 7 7 7 8 9 9 9 7 6 7 10 11 7 13 11 9 8 10 10 11 14 12
3 4 5 5 5 5 5 5 5 5 5 5 6 6 6 7 8 8 8 9 9 10 10 8 8 9 11 11 10 9 14 13 12 13 12 11 13 17
4 5 5 5 5 5 5 5 6 6 6 6 7 7 7 7 8 9 9 13 12 10 11 11 9 13 10 8 11 12 10 16 18 13 11 12 15 14
5 5 5 6 6 6 6 6 6 6 7 7 7 7 7 8 9 10 10 10 10 11 12 12 10 9 9 12 15 17 17 13 16 25 26 24 14 10
6 6 6 6 6 6 6 6 7 7 7 7 8 8 8 9 9 10 11 11 11 12 13 13 11 10 11 13 14 15 18 17 13 13 13 20 27 31
Wind_Direction
305 289 272 278 271 248 224 213 223 241 240 205 185 60 95 124 162 167 176 193 198 204 215 228 238 249 259 265 270 274 276 278 280 281 280 280 280 279
16 24 24 13 17 5 330 259 223 226 234 166 148 123 137 139 152 140 159 181 196 209 218 229 241 251 258 263 266 269 272 275 276 277 278 278 278 278
35 41 40 34 38 30 29 30 20 86 205 114 78 76 113 132 119 121 139 153 190 218 234 246 254 258 261 265 268 271 273 274 276 277 278 279 278 278
41 46 42 43 46 38 39 38 31 30 101 142 100 85 86 133 116 121 132 148 183 242 257 262 266 269 270 270 271 272 274 275 276 277 277 277 277 277
47 50 46 50 49 42 42 40 31 31 47 99 90 77 77 101 101 99 115 93 215 260 271 275 277 276 275 275 276 278 280 279 278 276 275 275 275 276
48 47 47 52 55 48 45 39 41 44 50 71 76 73 78 85 95 102 98 67 332 303 289 285 284 288 290 288 286 286 284 280 277 275 274 273 273 273
46 41 44 52 59 63 62 48 44 46 48 57 55 56 55 66 85 92 102 36 323 313 307 292 294 291 289 288 286 283 278 275 274 274 274 274 274 273
43 35 36 41 44 45 53 54 51 53 50 51 43 50 36 41 77 90 105 72 304 293 297 278 265 268 272 274 276 276 275 275 276 276 277 277 277 276
43 37 35 30 39 36 38 37 32 37 48 98 108 125 201 201 143 130 177 196 231 259 295 280 263 266 269 273 281 280 278 278 278 279 280 280 280 280
37 39 35 7 11 47 42 27 16 8 13 69 159 203 207 203 186 187 198 217 257 253 208 261 287 275 281 284 287 282 278 281 286 289 288 286 285 284
12 15 21 359 5 26 43 21 5 350 5 13 358 315 294 283 238 171 184 263 303 287 221 236 296 305 293 288 296 295 291 296 297 295 294 293 290 287
4 360 358 353 352 358 37 13 334 312 325 342 347 345 343 335 331 174 174 179 224 281 271 236 287 331 316 289 272 279 284 288 289 291 295 294 290 286
1 342 327 335 336 333 337 298 289 305 325 324 319 322 329 333 341 8 176 175 195 237 245 206 243 226 252 290 284 249 253 265 275 281 289 288 283 276
319 296 299 320 328 331 331 309 315 352 5 320 316 316 318 312 306 301 274 245 234 240 247 231 244 233 256 276 279 279 254 254 262 273 274 280 279 279
294 316 324 328 334 334 322 325 349 359 313 303 297 288 276 274 286 295 290 278 269 260 253 242 241 251 253 262 270 281 294 278 255 257 260 255 263 269
307 317 332 339 345 336 334 343 339 295 280 264 272 276 285 290 289 287 289 298 291 278 253 249 243 240 256 259 266 274 274 274 275 255 262 270 267 261
290 288 332 332 335 329 322 316 313 317 317 299 287 293 296 297 296 295 283 285 277 286 291 269 250 243 243 255 265 266 268 268 267 271 274 278 273 262
323 316 304 303 300 300 303 305 302 297 294 291 289 288 290 291 291 286 278 277 279 281 282 283 281 281 266 254 240 255 260 263 266 263 260 273 280 272
320 286 282 283 281 281 280 279 281 284 284 282 281 280 280 281 281 281 279 276 276 276 276 276 271 273 282 285 262 232 243 259 266 269 265 264 272 276
260 265 269 270 270 271 271 272 275 280 278 276 274 273 272 274 275 274 273 271 275 277 277 267 255 252 260 273 279 270 253 256 265 269 272 270 270 274
264 261 260 262 263 263 264 265 267 270 270 271 272 270 267 268 270 269 271 275 276 275 274 273 261 267 269 271 272 272 263 253 253 258 266 275 280 281
261 261 261 260 259 260 261 262 265 265 267 267 267 266 264 263 266 269 269 271 270 269 271 275 274 270 263 265 269 277 282 277 265 265 262 260 265 269
260 260 261 261 259 257 256 257 260 263 261 262 264 265 262 264 266 267 268 269 270 272 274 278 278 271 267 266 270 275 278 281 283 278 269 261 259 260
Height
1486 1486 1485 1485 1485 1484 1484 1483 1483 1480 1478 1479 1480 1479 1480 1480 1482 1484 1486 1488 1490 1492 1494 1497 1498 1499 1500 1500 1501 1501 1501 1501 1500 1500 1500 1500 1500 1500
1480 1480 1479 1479 1478 1478 1478 1477 1476 1476 1474 1472 1473 1474 1474 1475 1476 1478 1480 1483 1484 1487 1488 1490 1491 1492 1493 1493 1494 1494 1494 1493 1493 1493 1493 1492 1492 1493
1475 1475 1474 1474 1473 1473 1472 1472 1471 1471 1470 1468 1468 1469 1469 1470 1472 1474 1476 1478 1479 1481 1483 1484 1485 1486 1486 1487 1487 1486 1486 1486 1486 1485 1485 1485 1485 1485
1472 1471 1470 1470 1469 1469 1468 1468 1467 1466 1466 1465 1465 1465 1466 1467 1468 1470 1472 1473 1475 1475 1477 1478 1478 1479 1480 1480 1480 1479 1479 1479 1478 1478 1478 1478 1478 1478
1469 1468 1468 1467 1466 1466 1465 1465 1464 1463 1463 1463 1462 1463 1463 1464 1465 1467 1468 1469 1470 1470 1471 1472 1472 1473 1473 1473 1473 1472 1472 1471 1471 1471 1471 1471 1471 1471
1468 1467 1466 1465 1465 1464 1463 1462 1462 1461 1461 1461 1461 1461 1461 1461 1462 1463 1464 1465 1465 1466 1466 1467 1466 1466 1466 1466 1466 1466 1465 1465 1465 1465 1465 1465 1465 1464
1468 1467 1466 1465 1464 1463 1463 1462 1461 1460 1460 1459 1459 1459 1459 1459 1460 1460 1461 1461 1461 1462 1462 1461 1461 1461 1461 1460 1460 1460 1459 1459 1459 1459 1459 1459 1459 1458
1468 1467 1466 1465 1464 1463 1462 1461 1460 1460 1458 1458 1457 1457 1457 1457 1457 1457 1457 1458 1458 1459 1457 1457 1457 1456 1456 1455 1455 1454 1454 1454 1454 1453 1453 1453 1452 1452
1469 1467 1466 1464 1463 1462 1461 1460 1459 1458 1457 1457 1456 1455 1455 1455 1455 1455 1455 1455 1454 1454 1453 1452 1453 1452 1451 1450 1450 1449 1449 1448 1448 1447 1447 1446 1445 1444
1468 1467 1465 1464 1462 1460 1459 1458 1457 1456 1455 1454 1454 1453 1453 1453 1452 1452 1452 1451 1451 1451 1450 1448 1448 1447 1447 1445 1445 1444 1444 1443 1442 1441 1440 1439 1438 1437
1467 1466 1464 1463 1461 1459 1457 1456 1455 1454 1453 1452 1452 1451 1450 1450 1450 1449 1449 1448 1447 1447 1446 1445 1443 1442 1441 1441 1440 1440 1439 1438 1437 1435 1434 1432 1431 1429
1466 1464 1463 1461 1459 1457 1456 1454 1453 1452 1451 1450 1449 1448 1448 1447 1447 1447 1446 1446 1445 1444 1443 1442 1440 1439 1436 1435 1435 1435 1434 1433 1431 1429 1427 1425 1423 1422
1465 1463 1461 1459 1457 1456 1454 1452 1451 1449 1448 1447 1446 1446 1445 1445 1445 1444 1444 1443 1442 1441 1441 1439 1436 1435 1433 1430 1428 1429 1428 1426 1424 1422 1420 1418 1417 1415
1463 1461 1459 1457 1455 1454 1452 1450 1449 1447 1446 1445 1444 1444 1443 1443 1442 1441 1440 1439 1438 1437 1436 1435 1432 1431 1428 1424 1421 1420 1420 1419 1417 1415 1413 1412 1410 1408
1461 1458 1456 1455 1453 1451 1450 1448 1447 1445 1444 1443 1442 1441 1440 1439 1438 1438 1436 1435 1433 1432 1431 1429 1427 1425 1423 1419 1416 1413 1412 1411 1410 1408 1406 1404 1402 1400
1458 1456 1454 1452 1451 1449 1447 1446 1445 1443 1442 1441 1439 1438 1437 1436 1435 1433 1431 1430 1428 1427 1426 1424 1421 1419 1416 1414 1410 1406 1406 1403 1402 1401 1398 1395 1394 1392
1455 1453 1452 1450 1448 1447 1445 1443 1442 1440 1439 1438 1436 1435 1433 1432 1430 1428 1426 1424 1422 1420 1419 1418 1416 1413 1410 1407 1403 1400 1398 1396 1395 1393 1389 1385 1384 1383
1453 1450 1449 1447 1445 1443 1441 1440 1439 1437 1435 1434 1432 1431 1429 1427 1425 1423 1421 1419 1416 1414 1412 1410 1408 1405 1402 1398 1397 1393 1391 1388 1387 1385 1382 1377 1373 1373
1450 1447 1445 1443 1441 1440 1438 1436 1434 1433 1431 1429 1428 1426 1424 1422 1420 1418 1416 1413 1410 1408 1405 1404 1402 1399 1395 1389 1387 1387 1383 1380 1378 1375 1373 1370 1365 1362
1446 1444 1442 1440 1438 1436 1434 1432 1430 1428 1427 1425 1423 1421 1419 1416 1414 1412 1409 1407 1404 1401 1398 1396 1395 1393 1389 1384 1378 1375 1376 1373 1370 1366 1363 1360 1356 1354
1442 1440 1438 1436 1433 1431 1429 1427 1425 1423 1421 1419 1417 1415 1413 1411 1408 1405 1403 1400 1398 1394 1391 1388 1387 1386 1381 1377 1371 1364 1365 1365 1362 1358 1354 1351 1346 1343
1438 1436 1434 1431 1429 1427 1424 1422 1420 1418 1416 1414 1412 1409 1407 1404 1401 1399 1396 1393 1390 1387 1383 1380 1378 1376 1373 1369 1362 1357 1353 1352 1351 1349 1346 1343 1341 1334
1434 1431 1429 1427 1424 1422 1419 1417 1414 1412 1410 1408 1405 1403 1400 1398 1395 1392 1389 1386 1383 1379 1376 1372 1369 1366 1363 1359 1354 1349 1344 1341 1339 1336 1333 1332 1330 1326